Home > Weather > Førde > Past weeks

Flag for Norway Past Weather in Førde, Norway — Yesterday and Last 2 Weeks

Now
52 °F

Scattered showers. Broken clouds.


Feels Like: 50 °F
Forecast: 44 / 57 °F
Wind: 6 mph from South

Location: Forde / Bringeland

Current Time: Jun 27, 2016 at 1:22:12 PM

Latest Report: Jun 27, 2016 at 12:50 PM


Visibility: N/A

Pressure: 29.65 "Hg

Humidity: 88%

Dew Point: 48 °F

Location of FørdeLocation

Past Weather in Førde — Graph

°F

Førde Temperature Yesterday

Maximum temperature yesterday: 61 °F (at 11:50 AM)
Minimum temperature yesterday: 57 °F (at 1:50 PM)
Average temperature yesterday: 59 °F

High & Low Weather Summary for the Past Weeks

 TemperatureHumidityPressure
High70 °F (Jun 15, 2:20 PM)100% (Jun 20, 9:20 PM)30.12 "Hg (Jun 20, 9:20 PM)
Low45 °F (Jun 20, 5:50 AM)32% (Jun 15, 10:20 AM)29.59 "Hg (Jun 14, 4:50 PM)
Average58 °F68%29.80 "Hg
* Reported Jun 12 12:20 PM — Jun 27 11:50 AM, Førde, Weather by CustomWeather, © 2016

Note: Actual official high and low records may vary slightly from our data, if they occured in-between our weather recording intervals... More about our weather records

Advertising

Førde Weather History for the Previous 24 Hours

Scroll right to see more
 ConditionsComfort  
Time TempWeatherWind HumidityBarometerVisibility
11:50 AM
Mon, Jun 27
52 °FSprinkles. Broken clouds.5 mph88%29.65 "HgN/A
11:20 AM52 °FScattered showers. Broken clouds.8 mph82%29.65 "HgN/A
10:50 AM54 °FBroken clouds.8 mph82%29.65 "HgN/A
10:20 AM52 °FScattered showers. Broken clouds.10 mph88%29.65 "HgN/A
9:50 AM54 °FScattered showers. Broken clouds.8 mph88%29.62 "HgN/A
9:20 AM54 °FBroken clouds.6 mph88%29.62 "HgN/A
8:50 AM54 °FBroken clouds.8 mph88%29.62 "HgN/A
8:20 AM54 °FBroken clouds.6 mph88%29.62 "HgN/A
7:50 AM54 °FBroken clouds.8 mph88%29.62 "HgN/A
7:20 AM54 °FBroken clouds.10 mph88%29.62 "HgN/A
6:50 AM54 °FBroken clouds.9 mph88%29.65 "HgN/A
6:20 AM54 °FBroken clouds.10 mph88%29.65 "HgN/A
5:50 AM55 °FBroken clouds.6 mph82%29.65 "HgN/A
10:50 PM
Sun, Jun 26
57 °FDrizzle. Fog.2 mph100%29.62 "Hg1 mi
10:20 PM59 °FDrizzle. Cloudy.2 mph94%29.62 "HgN/A
9:50 PM59 °FLight rain. Broken clouds.2 mph94%29.62 "HgN/A
9:20 PM59 °FLight rain. Fog.2 mph100%29.62 "HgN/A
8:50 PM59 °FLight rain. Broken clouds.2 mph100%29.62 "HgN/A
8:20 PM59 °FLight rain. Broken clouds.1 mph100%29.62 "HgN/A
7:50 PM59 °FLight rain. Cloudy.1 mph94%29.65 "HgN/A
7:20 PM59 °FLight rain. Cloudy.2 mph94%29.65 "Hg1 mi
6:50 PM59 °FLight rain. Cloudy.2 mph94%29.65 "Hg3 mi
6:20 PM59 °FLight rain. Cloudy.2 mph94%29.65 "HgN/A
5:20 PM59 °FRain. Fog.2 mph94%29.68 "HgN/A
4:50 PM59 °FLight rain. Broken clouds.3 mph94%29.68 "HgN/A
4:20 PM59 °FLight rain. Broken clouds.3 mph88%29.68 "HgN/A
3:50 PM59 °FLight rain. Broken clouds.5 mph88%29.68 "HgN/A
3:20 PM59 °FLight rain. Broken clouds.3 mph88%29.71 "HgN/A
2:50 PM59 °FLight rain. Broken clouds.2 mph88%29.71 "HgN/A
2:20 PM59 °FLight rain. Broken clouds.5 mph88%29.74 "HgN/A
1:50 PM57 °FLight rain. Broken clouds.7 mph94%29.74 "HgN/A
1:20 PM59 °FLight rain. Broken clouds.5 mph88%29.77 "HgN/A
Weather by CustomWeather, © 2016

See weather overviewHow to use our weather pages